Change the Weather History Date:

Tuesday, February 14, 2012

  Actual Average Record
Temperature  
Mean Temperature 40 °F -  
Max Temperature 46 °F 45 °F 54 °F (2014)
Min Temperature 33 °F 34 °F 27 °F (2005)
Degree Days  
Heating Degree Days 26    
Moisture  
Dew Point 37 °F    
Average Humidity 87    
Maximum Humidity 96    
Minimum Humidity 66    
Precipitation  
Precipitation 0.02 in - - ()
Sea Level Pressure  
Sea Level Pressure 29.98 in    
Wind  
Wind Speed 1 mph (SSE)    
Max Wind Speed 7 mph    
Max Gust Speed -    
Visibility 9 miles    
Events Rain    
Averages and records for this station are not official NWS values.
T = Trace of Precipitation, MM = Missing Value Source: NWS Daily Summary

Daily Weather History Graph

Daily Weather History Graph

Search for Another Location

Airport or City:

Trip Planner

Search our weather history database for the weather conditions in past years. The results will help you decide how hot, cold, wet, or windy it might be!

Date:

Astronomy

Feb. 14, 2012 Rise Set
Actual Time 7:21 AM PST 5:31 PM PST
Civil Twilight 6:49 AM PST 6:03 PM PST
Nautical Twilight 6:12 AM PST 6:40 PM PST
Astronomical Twilight 5:36 AM PST 7:16 PM PST
Moon 1:25 AM PST (2/14) 10:27 AM PST (2/14)
Length of Visible Light 11h 14m
Length of Day
10h 09m
Waning Gibbous, 49% of the Moon is Illuminated
Feb 14
Waning Gibbous
Feb 21
New
Feb 29
First Quarter
Mar 8
Full
Mar 14
Last Quarter

Hourly Weather History & Observations

Time (PST) Temp. Windchill Dew Point Humidity Pressure Visibility Wind Dir Wind Speed Gust Speed Precip Events Conditions
12:29 AM 41.0 °F - 39.2 °F 93% 30.01 in 10.0 mi Calm Calm - N/A   Overcast
12:53 AM 42.1 °F 40.2 °F 39.0 °F 89% 30.01 in 10.0 mi SSW 3.5 mph - N/A   Overcast
1:46 AM 42.8 °F 40.1 °F 39.2 °F 87% 29.99 in 10.0 mi SSE 4.6 mph - N/A   Mostly Cloudy
1:53 AM 43.0 °F 41.3 °F 39.0 °F 86% 29.99 in 10.0 mi South 3.5 mph - N/A   Overcast
2:31 AM 42.8 °F - 39.2 °F 87% 29.97 in 10.0 mi Calm Calm - 0.00 in Rain Light Rain
2:53 AM 43.0 °F - 39.9 °F 89% 29.96 in 9.0 mi Calm Calm - 0.00 in Rain Light Rain
3:23 AM 42.8 °F 41.1 °F 39.2 °F 87% 29.94 in 10.0 mi ESE 3.5 mph - 0.00 in   Overcast
3:53 AM 43.0 °F - 39.0 °F 86% 29.93 in 10.0 mi Calm Calm - 0.00 in   Overcast
4:53 AM 42.1 °F - 39.0 °F 89% 29.91 in 10.0 mi Calm Calm - N/A   Scattered Clouds
5:10 AM 42.8 °F - 39.2 °F 87% 29.92 in 10.0 mi Calm Calm - N/A   Mostly Cloudy
5:17 AM 42.8 °F - 39.2 °F 87% 29.92 in 10.0 mi Calm Calm - N/A   Mostly Cloudy
5:25 AM 41.0 °F - 39.2 °F 93% 29.92 in 10.0 mi Calm Calm - N/A   Overcast
5:50 AM 42.8 °F - 39.2 °F 87% 29.92 in 10.0 mi Calm Calm - N/A   Overcast
5:53 AM 42.1 °F - 39.0 °F 89% 29.93 in 10.0 mi Calm Calm - N/A   Overcast
6:16 AM 42.8 °F - 39.2 °F 87% 29.91 in 10.0 mi Calm Calm - N/A   Overcast
6:53 AM 42.1 °F - 39.0 °F 89% 29.91 in 10.0 mi Calm Calm - N/A   Overcast
7:05 AM 41.0 °F - 39.2 °F 93% 29.90 in 10.0 mi Calm Calm - N/A   Overcast
7:19 AM 42.8 °F - 39.2 °F 87% 29.90 in 10.0 mi Calm Calm - N/A   Overcast
7:53 AM 42.1 °F - 39.0 °F 89% 29.91 in 10.0 mi Calm Calm - N/A   Mostly Cloudy
8:05 AM 42.8 °F 41.1 °F 39.2 °F 87% 29.90 in 10.0 mi NE 3.5 mph - N/A   Overcast
8:16 AM 42.8 °F 41.1 °F 39.2 °F 87% 29.90 in 10.0 mi ENE 3.5 mph - N/A   Overcast
8:53 AM 44.1 °F 41.5 °F 39.0 °F 82% 29.90 in 10.0 mi East 4.6 mph - N/A   Overcast
9:53 AM 43.0 °F - 39.0 °F 86% 29.92 in 10.0 mi Calm Calm - N/A   Overcast
10:03 AM 42.8 °F - 39.2 °F 87% 29.92 in 10.0 mi Calm Calm - N/A   Overcast
10:25 AM 42.8 °F 41.1 °F 39.2 °F 87% 29.92 in 8.0 mi East 3.5 mph - 0.00 in Rain Light Rain
10:39 AM 42.8 °F 41.1 °F 39.2 °F 87% 29.93 in 7.0 mi East 3.5 mph - 0.00 in Rain Light Rain
10:53 AM 42.1 °F 37.7 °F 39.0 °F 89% 29.93 in 7.0 mi SW 6.9 mph - 0.00 in Rain Light Rain
10:56 AM 41.0 °F 39.0 °F 37.4 °F 87% 29.93 in 7.0 mi SW 3.5 mph - 0.00 in Rain Light Rain
11:08 AM 39.2 °F 35.9 °F 35.6 °F 87% 29.94 in 7.0 mi West 4.6 mph - 0.00 in Rain Light Rain
11:16 AM 39.2 °F 35.9 °F 35.6 °F 87% 29.94 in 9.0 mi WSW 4.6 mph - 0.00 in Rain Light Rain
11:53 AM 41.0 °F - 37.0 °F 86% 29.96 in 8.0 mi Calm Calm - 0.01 in Rain Light Rain
12:40 PM 42.8 °F - 37.4 °F 81% 29.95 in 10.0 mi Calm Calm - 0.01 in Rain Light Rain
12:53 PM 42.1 °F - 37.0 °F 82% 29.95 in 10.0 mi Calm Calm - 0.01 in Rain Light Rain
1:34 PM 44.6 °F - 39.2 °F 81% 29.95 in 10.0 mi Calm Calm - 0.00 in   Overcast
1:53 PM 45.0 °F 43.5 °F 37.9 °F 76% 29.95 in 10.0 mi East 3.5 mph - 0.00 in   Overcast
2:53 PM 46.0 °F 44.8 °F 35.1 °F 66% 29.97 in 10.0 mi SE 3.5 mph - N/A   Clear
3:22 PM 46.4 °F - 35.6 °F 66% 29.98 in 10.0 mi Calm Calm - N/A   Mostly Cloudy
3:36 PM 44.6 °F - 37.4 °F 76% 29.99 in 10.0 mi Calm Calm - N/A   Mostly Cloudy
3:53 PM 44.1 °F 41.5 °F 37.9 °F 79% 30.00 in 10.0 mi South 4.6 mph - N/A   Mostly Cloudy
4:53 PM 41.0 °F - 37.0 °F 86% 30.01 in 10.0 mi Calm Calm - N/A   Clear
5:53 PM 37.0 °F - 34.0 °F 89% 30.05 in 9.0 mi Calm Calm - N/A   Clear
6:53 PM 35.1 °F - 33.1 °F 92% 30.07 in 8.0 mi Calm Calm - N/A   Clear
7:53 PM 34.0 °F - 32.0 °F 92% 30.11 in 10.0 mi Calm Calm - N/A   Clear
8:53 PM 36.0 °F 32.1 °F 34.0 °F 93% 30.14 in 10.0 mi West 4.6 mph - N/A   Clear
9:53 PM 36.0 °F - 34.0 °F 93% 30.17 in 10.0 mi Calm Calm - N/A   Clear
10:36 PM 33.8 °F - 32.0 °F 93% 30.17 in 1.5 mi Calm Calm - N/A   Clear
10:41 PM 33.8 °F - 30.2 °F 87% 30.17 in 0.8 mi Calm Calm - N/A   Mist
10:47 PM 33.8 °F - 30.2 °F 87% 30.17 in 1.2 mi Calm Calm - N/A   Partly Cloudy
10:53 PM 34.0 °F - 32.0 °F 92% 30.18 in 3.0 mi Calm Calm - N/A   Clear
11:53 PM 33.1 °F - 32.0 °F 96% 30.21 in 10.0 mi Calm Calm - N/A   Clear